sat.trackr.live / text

‹ back to catalog

GEESAT-6 09

NORAD 65721 · 2025-214K

PAYLOAD ACTIVE UNKNOWN

§ Identity

Operator
Country
PRC
Launch date
2025-09-24
Launch site
YSLA
Launch vehicle
Mass (kg)
RCS (m²)

External: N2YO · Heavens-Above · Gunter

§ Orbital elements

Epoch: 2026-09-20T14:58:16.683744Z

Period
97.06 min
Inclination
49.9842°
Eccentricity
0.0008205
Mean motion
14.83578832 rev/d
Perigee alt
612.3 km
Apogee alt
623.8 km
Semi-major
6,996.2 km
B*
1.4152e-4
RAAN
226.0489°
Arg perigee
219.8586°
Mean anomaly
140.1751°
Rev number
5,367

§ Raw data

GEESAT-6 091 65721U 25214K   26263.62380421  .00000952  00000+0  14152-3 0  99912 65721  49.9842 226.0489 0008205 219.8586 140.1751 14.83578832 53673

JSON: /api/v1/satellites/65721 · /tle

For live sub-satellite position, see the globe view (requires WebGL).

§ Visibility from observer

Set your observer location to see the next 7 days of passes ≥ 10°. The values pass through the URL so the page stays shareable.

No JS? Fill the form by hand. The geolocation button needs JavaScript.